User: anonymous   Login
Location: Bangkok
(13.7500°N, 100.5170°E)
Time: 21:56:45
(UTC+07:00)
Language:

SPOT 1/Viking Rocket - Orbit

View from above orbital plane
View from above orbital plane
View from above satellite
View from above satellite

Ground track
Ground track

The orbit data is extracted from the following two-line orbital elements,

1 16615U 86019C   14328.14117170  .00000237  00000-0  10634-3 0  5459
2 16615 098.7376 020.4127 0010775 275.3930 151.7307 14.31355937505573
Epoch (UTC): 24 November 2014 03:23:17
Eccentricity: 0.0010775
inclination: 98.7376°
perigee height: 779 km
apogee height: 795 km
right ascension of ascending node: 20.4127°
argument of perigee: 275.3930°
revolutions per day: 14.31355937
mean anomaly at epoch: 151.7307°
orbit number at epoch: 50557

The dashed part of the orbit path shows where the satellite is in the earth's shadow,  

DLR